(560354) Chrisnolan = 2015 FW291

Discovered at Tincana on 2013-11-26 by M. Zolnowski and M. Kusiak.
(560354) Chrisnolan

Christopher Edward Nolan (b. 1970) is a British-American film director, producer, and screenwriter. He has received 36 Oscar nominations, winning eleven times. [Ref: WGSBN Bull. 1, #5, 15]

Orbit

Orbit type: Main Belt

Note: WebGL enabled browser required.

epoch2023-09-13.0
epoch JD2460200.5
perihelion date2019-10-01.68435
perihelion JD2458758.18435
argument of perihelion (°)32.68788
ascending node (°)82.02417
inclination (°)11.99877
eccentricity0.0565389
perihelion distance (AU)2.8822720
Tisserand w.r.t. Jupiter3.2
ΔV w.r.t. Earth (km/sec)11.2
semimajor axis (AU)3.0549981
mean anomaly (°)266.22433
mean daily motion (°/day)0.18458120
aphelion distance (AU)3.228
period (years)5.34
P-vector [x]-0.40637309
P-vector [y]0.78729716
P-vector [z]0.46370691
Q-vector [x]-0.89021034
Q-vector [y]-0.45549926
Q-vector [z]-0.00678069
absolute magnitude16.55
phase slope0.15
uncertainty0
referenceMPEC 2023-X102
observations used127
oppositions9
arc length (days)6783
first opposition used2005
last opposition used2023
residual rms (arc-secs)0.70
perturbers coarse indicatorM-v
perturbers precise indicator003Ek
first observation date used2005-05-10.0
last observation date used2023-12-05.0
computer nameMPCLINUX
Minimum Orbit Intersection Distances (in AU)
for orbit epoch: 2460200.5, reference: E2023-XA2
Mercury2.55494
Venus2.16602
Earth1.90488
Mars1.26627
Jupiter1.94906
Saturn6.14643
Uranus15.5594
Neptune26.8188

Observations

130 total observations over interval: 2005 05 10.27190 – 2023 12 05.317851
These data are available for download (format description).

